N226DA KMYF-KVNY

Flight info

Callsign N226DA
Flight time 1h 11m
Altitude 6000
Route SANP17
Aircraft DA40/L-VGD/C

Departure

Time 2026-04-24 03:02
Airport Montgomery-Gibbs Executive Airport (KMYF)

Arrival

Time 2026-04-24 04:13
Airport Van Nuys Airport (KVNY)
Time Latitude Longitude Altitude Speed Heading
2026-04-24 02:23 32.81145 -117.13784 421 ft 0 kts 294°
2026-04-24 02:46 32.81153 -117.13796 420 ft 1 kts 343°
2026-04-24 02:46 32.81200 -117.13774 423 ft 12 kts 24°
2026-04-24 02:46 32.81234 -117.13755 420 ft 0 kts 26°
2026-04-24 02:47 32.81241 -117.13751 417 ft 5 kts 24°
2026-04-24 02:47 32.81292 -117.13715 422 ft 4 kts 95°
2026-04-24 02:48 32.81276 -117.13675 417 ft 9 kts 115°
2026-04-24 02:48 32.81241 -117.13585 423 ft 16 kts 114°
2026-04-24 02:48 32.81189 -117.13454 423 ft 18 kts 119°
2026-04-24 02:48 32.81127 -117.13325 424 ft 17 kts 118°
2026-04-24 02:49 32.81150 -117.13208 421 ft 16 kts 56°
2026-04-24 02:49 32.81191 -117.13115 424 ft 0 kts 335°
2026-04-24 02:49 32.81196 -117.13118 420 ft 0 kts 332°
2026-04-24 02:53 32.81203 -117.13129 422 ft 4 kts 291°
2026-04-24 02:53 32.81215 -117.13143 424 ft 0 kts 20°
2026-04-24 03:01 32.81216 -117.13142 424 ft 3 kts 20°
2026-04-24 03:01 32.81270 -117.13123 419 ft 11 kts 343°
2026-04-24 03:01 32.81351 -117.13286 415 ft 46 kts 296°
2026-04-24 03:01 32.81537 -117.13745 526 ft 67 kts 300°
2026-04-24 03:02 32.81734 -117.14243 770 ft 66 kts 292°
2026-04-24 03:02 32.81908 -117.14766 1011 ft 71 kts 294°
2026-04-24 03:02 32.82115 -117.15329 1265 ft 76 kts 293°
2026-04-24 03:02 32.82317 -117.15919 1466 ft 81 kts 291°
2026-04-24 03:03 32.82536 -117.16540 1711 ft 82 kts 290°
2026-04-24 03:03 32.82753 -117.17156 1952 ft 82 kts 295°
2026-04-24 03:03 32.82980 -117.17755 2208 ft 81 kts 289°
2026-04-24 03:03 32.83184 -117.18385 2419 ft 81 kts 291°
2026-04-24 03:04 32.83375 -117.18994 2668 ft 79 kts 290°
2026-04-24 03:04 32.83577 -117.19608 2860 ft 80 kts 291°
2026-04-24 03:04 32.83785 -117.20218 3076 ft 79 kts 291°
2026-04-24 03:04 32.84082 -117.20765 3248 ft 82 kts 322°
2026-04-24 03:05 32.84600 -117.21042 3448 ft 82 kts 335°
2026-04-24 03:05 32.85123 -117.21300 3628 ft 82 kts 334°
2026-04-24 03:05 32.85653 -117.21567 3807 ft 83 kts 333°
2026-04-24 03:05 32.86183 -117.21837 3982 ft 83 kts 333°
2026-04-24 03:06 32.86716 -117.22112 4144 ft 84 kts 333°
2026-04-24 03:06 32.87251 -117.22389 4311 ft 84 kts 333°
2026-04-24 03:06 32.87787 -117.22669 4468 ft 84 kts 333°
2026-04-24 03:06 32.88326 -117.22950 4624 ft 85 kts 333°
2026-04-24 03:07 32.88867 -117.23233 4775 ft 85 kts 332°
2026-04-24 03:07 32.89410 -117.23517 4922 ft 85 kts 333°
2026-04-24 03:07 32.89952 -117.23801 5066 ft 85 kts 333°
2026-04-24 03:07 32.90492 -117.24084 5206 ft 85 kts 332°
2026-04-24 03:08 32.91032 -117.24367 5351 ft 84 kts 332°
2026-04-24 03:08 32.92099 -117.24927 5622 ft 84 kts 331°
2026-04-24 03:08 32.92633 -117.25207 5760 ft 84 kts 332°
2026-04-24 03:09 32.93166 -117.25487 5890 ft 84 kts 332°
2026-04-24 03:09 32.93699 -117.25767 6011 ft 85 kts 331°
2026-04-24 03:09 32.94283 -117.26075 6020 ft 98 kts 332°
2026-04-24 03:09 32.94941 -117.26420 6019 ft 109 kts 333°
2026-04-24 03:10 32.95668 -117.26799 6016 ft 119 kts 333°
2026-04-24 03:10 32.96442 -117.27202 6013 ft 124 kts 334°
2026-04-24 03:10 32.97240 -117.27619 6011 ft 126 kts 334°
2026-04-24 03:10 32.98051 -117.28045 6010 ft 128 kts 333°
2026-04-24 03:11 32.98859 -117.28470 6003 ft 129 kts 334°
2026-04-24 03:11 32.99683 -117.28903 6002 ft 129 kts 334°
2026-04-24 03:11 33.00508 -117.29337 6002 ft 130 kts 333°
2026-04-24 03:11 33.01338 -117.29774 6000 ft 131 kts 334°
2026-04-24 03:12 33.02168 -117.30211 6000 ft 131 kts 334°
2026-04-24 03:12 33.03001 -117.30649 5998 ft 131 kts 333°
2026-04-24 03:12 33.03832 -117.31088 5998 ft 131 kts 334°
2026-04-24 03:12 33.04665 -117.31526 5995 ft 131 kts 334°
2026-04-24 03:13 33.05495 -117.31964 5998 ft 131 kts 333°
2026-04-24 03:13 33.06327 -117.32402 5998 ft 131 kts 334°
2026-04-24 03:13 33.07157 -117.32840 5998 ft 131 kts 333°
2026-04-24 03:13 33.07977 -117.33272 6006 ft 131 kts 334°
2026-04-24 03:14 33.08811 -117.33712 6004 ft 131 kts 334°
2026-04-24 03:14 33.09646 -117.34152 6004 ft 131 kts 334°
2026-04-24 03:14 33.10483 -117.34594 6005 ft 132 kts 334°
2026-04-24 03:14 33.11322 -117.35036 6004 ft 132 kts 334°
2026-04-24 03:15 33.12161 -117.35479 6003 ft 132 kts 334°
2026-04-24 03:15 33.13002 -117.35923 6004 ft 132 kts 334°
2026-04-24 03:15 33.13843 -117.36367 6004 ft 132 kts 334°
2026-04-24 03:15 33.14683 -117.36810 6003 ft 132 kts 334°
2026-04-24 03:16 33.15524 -117.37255 6004 ft 132 kts 334°
2026-04-24 03:16 33.16354 -117.37693 6003 ft 132 kts 334°
2026-04-24 03:16 33.17196 -117.38138 6003 ft 132 kts 334°
2026-04-24 03:16 33.18036 -117.38582 6003 ft 132 kts 334°
2026-04-24 03:17 33.18875 -117.39026 6002 ft 132 kts 334°
2026-04-24 03:17 33.19711 -117.39468 6003 ft 132 kts 334°
2026-04-24 03:17 33.20548 -117.39911 6003 ft 132 kts 334°
2026-04-24 03:17 33.21384 -117.40353 6003 ft 131 kts 334°
2026-04-24 03:18 33.22220 -117.40795 6003 ft 132 kts 334°
2026-04-24 03:18 33.23056 -117.41238 6004 ft 131 kts 334°
2026-04-24 03:18 33.23890 -117.41690 6001 ft 131 kts 329°
2026-04-24 03:18 33.24589 -117.42376 6003 ft 130 kts 315°
2026-04-24 03:19 33.25239 -117.43136 6001 ft 131 kts 314°
2026-04-24 03:19 33.25890 -117.43896 6001 ft 131 kts 315°
2026-04-24 03:19 33.26538 -117.44644 6001 ft 131 kts 315°
2026-04-24 03:19 33.27200 -117.45396 6001 ft 131 kts 315°
2026-04-24 03:20 33.27859 -117.46150 6001 ft 131 kts 315°
2026-04-24 03:20 33.28517 -117.46906 6000 ft 131 kts 315°
2026-04-24 03:20 33.29173 -117.47659 6001 ft 131 kts 315°
2026-04-24 03:20 33.29826 -117.48416 6001 ft 131 kts 315°
2026-04-24 03:21 33.30479 -117.49170 6000 ft 130 kts 315°
2026-04-24 03:21 33.31130 -117.49923 5999 ft 130 kts 315°
2026-04-24 03:21 33.31782 -117.50675 6001 ft 130 kts 315°
2026-04-24 03:21 33.32434 -117.51428 6000 ft 130 kts 315°
2026-04-24 03:22 33.33076 -117.52169 5996 ft 130 kts 315°
2026-04-24 03:22 33.33724 -117.52918 5997 ft 129 kts 315°
2026-04-24 03:22 33.34371 -117.53665 5998 ft 129 kts 315°
2026-04-24 03:22 33.35019 -117.54414 5999 ft 130 kts 315°
2026-04-24 03:23 33.35669 -117.55165 5999 ft 130 kts 315°
2026-04-24 03:23 33.36320 -117.55917 5998 ft 130 kts 315°
2026-04-24 03:23 33.36973 -117.56671 5995 ft 131 kts 315°
2026-04-24 03:23 33.37625 -117.57426 5998 ft 130 kts 315°
2026-04-24 03:24 33.38264 -117.58176 5997 ft 131 kts 313°
2026-04-24 03:24 33.38872 -117.58982 5997 ft 130 kts 311°
2026-04-24 03:24 33.39477 -117.59795 6001 ft 131 kts 311°
2026-04-24 03:24 33.40081 -117.60614 5996 ft 131 kts 311°
2026-04-24 03:25 33.40685 -117.61429 5998 ft 130 kts 311°
2026-04-24 03:25 33.41286 -117.62238 5996 ft 130 kts 311°
2026-04-24 03:25 33.41885 -117.63045 5998 ft 130 kts 311°
2026-04-24 03:25 33.42485 -117.63852 5998 ft 130 kts 311°
2026-04-24 03:26 33.43084 -117.64660 6000 ft 130 kts 311°
2026-04-24 03:26 33.43683 -117.65467 6001 ft 130 kts 311°
2026-04-24 03:26 33.44275 -117.66262 5998 ft 130 kts 311°
2026-04-24 03:26 33.44876 -117.67069 5997 ft 130 kts 311°
2026-04-24 03:27 33.45478 -117.67875 5995 ft 130 kts 311°
2026-04-24 03:27 33.46080 -117.68680 5995 ft 130 kts 311°
2026-04-24 03:27 33.46683 -117.69489 5994 ft 130 kts 311°
2026-04-24 03:27 33.47285 -117.70305 5996 ft 131 kts 311°
2026-04-24 03:28 33.47886 -117.71139 5996 ft 133 kts 311°
2026-04-24 03:28 33.48490 -117.71980 5996 ft 133 kts 311°
2026-04-24 03:28 33.49086 -117.72811 6012 ft 133 kts 311°
2026-04-24 03:28 33.49687 -117.73652 6012 ft 133 kts 311°
2026-04-24 03:29 33.50290 -117.74496 6011 ft 133 kts 311°
2026-04-24 03:29 33.50896 -117.75341 6011 ft 134 kts 311°
2026-04-24 03:29 33.51501 -117.76186 6011 ft 134 kts 311°
2026-04-24 03:29 33.52110 -117.77031 6011 ft 134 kts 311°
2026-04-24 03:30 33.52718 -117.77879 6007 ft 134 kts 311°
2026-04-24 03:30 33.53325 -117.78724 6008 ft 134 kts 311°
2026-04-24 03:30 33.53930 -117.79569 6007 ft 133 kts 311°
2026-04-24 03:30 33.54526 -117.80403 6007 ft 133 kts 311°
2026-04-24 03:31 33.55131 -117.81246 6007 ft 134 kts 311°
2026-04-24 03:31 33.55739 -117.82090 6008 ft 134 kts 311°
2026-04-24 03:31 33.56347 -117.82934 6008 ft 134 kts 311°
2026-04-24 03:31 33.56956 -117.83781 6008 ft 134 kts 311°
2026-04-24 03:32 33.57564 -117.84625 6009 ft 134 kts 311°
2026-04-24 03:32 33.58171 -117.85470 6010 ft 133 kts 311°
2026-04-24 03:32 33.58775 -117.86314 6010 ft 134 kts 311°
2026-04-24 03:32 33.59383 -117.87160 6010 ft 134 kts 311°
2026-04-24 03:33 33.59992 -117.88007 6008 ft 134 kts 311°
2026-04-24 03:33 33.60603 -117.88855 6007 ft 134 kts 311°
2026-04-24 03:33 33.61212 -117.89703 6007 ft 134 kts 311°
2026-04-24 03:33 33.61813 -117.90539 6007 ft 134 kts 311°
2026-04-24 03:34 33.62420 -117.91386 6009 ft 134 kts 311°
2026-04-24 03:34 33.63025 -117.92233 6010 ft 134 kts 311°
2026-04-24 03:34 33.63632 -117.93079 6009 ft 134 kts 311°
2026-04-24 03:34 33.64238 -117.93924 6009 ft 134 kts 311°
2026-04-24 03:35 33.64847 -117.94771 6010 ft 134 kts 311°
2026-04-24 03:35 33.65452 -117.95622 6010 ft 134 kts 311°
2026-04-24 03:35 33.66058 -117.96474 6010 ft 134 kts 311°
2026-04-24 03:35 33.66662 -117.97326 6010 ft 134 kts 311°
2026-04-24 03:36 33.67266 -117.98180 6010 ft 134 kts 311°
2026-04-24 03:36 33.67873 -117.99032 6010 ft 134 kts 311°
2026-04-24 03:36 33.68473 -117.99875 6009 ft 135 kts 311°
2026-04-24 03:36 33.69082 -118.00729 6008 ft 135 kts 311°
2026-04-24 03:37 33.69690 -118.01584 6007 ft 135 kts 311°
2026-04-24 03:37 33.70299 -118.02440 6006 ft 135 kts 311°
2026-04-24 03:37 33.70906 -118.03298 6006 ft 135 kts 311°
2026-04-24 03:37 33.71511 -118.04154 6005 ft 135 kts 311°
2026-04-24 03:38 33.72119 -118.05011 6005 ft 135 kts 311°
2026-04-24 03:38 33.72726 -118.05865 6005 ft 135 kts 311°
2026-04-24 03:38 33.73336 -118.06719 6004 ft 135 kts 311°
2026-04-24 03:38 33.73942 -118.07576 5999 ft 134 kts 311°
2026-04-24 03:39 33.74543 -118.08430 6004 ft 134 kts 311°
2026-04-24 03:39 33.75145 -118.09287 5972 ft 134 kts 311°
2026-04-24 03:39 33.75744 -118.10145 5973 ft 134 kts 311°
2026-04-24 03:39 33.76340 -118.10988 5972 ft 134 kts 311°
2026-04-24 03:40 33.76942 -118.11843 5974 ft 134 kts 311°
2026-04-24 03:40 33.77549 -118.12698 6001 ft 134 kts 311°
2026-04-24 03:40 33.78153 -118.13556 6002 ft 135 kts 311°
2026-04-24 03:40 33.78760 -118.14416 6001 ft 135 kts 311°
2026-04-24 03:41 33.79362 -118.15278 6001 ft 135 kts 311°
2026-04-24 03:41 33.79967 -118.16141 6002 ft 135 kts 311°
2026-04-24 03:41 33.80576 -118.17003 6001 ft 135 kts 311°
2026-04-24 03:41 33.81185 -118.17868 6000 ft 136 kts 311°
2026-04-24 03:42 33.81794 -118.18732 6003 ft 135 kts 311°
2026-04-24 03:42 33.82405 -118.19591 6003 ft 135 kts 311°
2026-04-24 03:42 33.83006 -118.20435 6003 ft 135 kts 311°
2026-04-24 03:42 33.83613 -118.21292 6003 ft 134 kts 311°
2026-04-24 03:43 33.84218 -118.22145 6003 ft 134 kts 311°
2026-04-24 03:43 33.84825 -118.22996 6003 ft 134 kts 311°
2026-04-24 03:43 33.85431 -118.23846 6004 ft 134 kts 311°
2026-04-24 03:43 33.86041 -118.24697 6004 ft 134 kts 311°
2026-04-24 03:44 33.86647 -118.25548 6003 ft 134 kts 311°
2026-04-24 03:44 33.87256 -118.26399 6003 ft 134 kts 311°
2026-04-24 03:44 33.87863 -118.27250 6003 ft 134 kts 311°
2026-04-24 03:44 33.88470 -118.28101 6004 ft 134 kts 311°
2026-04-24 03:45 33.89070 -118.28937 6003 ft 134 kts 311°
2026-04-24 03:45 33.89677 -118.29785 6003 ft 134 kts 311°
2026-04-24 03:45 33.90289 -118.30634 6003 ft 134 kts 311°
2026-04-24 03:45 33.90896 -118.31483 6004 ft 134 kts 311°
2026-04-24 03:46 33.91506 -118.32334 6003 ft 134 kts 311°
2026-04-24 03:46 33.92112 -118.33184 6003 ft 134 kts 311°
2026-04-24 03:46 33.92719 -118.34032 6003 ft 133 kts 311°
2026-04-24 03:46 33.93325 -118.34879 6002 ft 134 kts 311°
2026-04-24 03:47 33.93932 -118.35727 6003 ft 134 kts 311°
2026-04-24 03:47 33.94531 -118.36561 6003 ft 134 kts 312°
2026-04-24 03:47 33.95137 -118.37413 6001 ft 134 kts 311°
2026-04-24 03:47 33.95743 -118.38270 6000 ft 135 kts 311°
2026-04-24 03:48 33.96348 -118.39132 5997 ft 135 kts 311°
2026-04-24 03:48 33.96957 -118.39993 5997 ft 135 kts 311°
2026-04-24 03:48 33.97567 -118.40854 5997 ft 135 kts 311°
2026-04-24 03:48 33.98180 -118.41717 5997 ft 136 kts 311°
2026-04-24 03:49 33.98796 -118.42581 6000 ft 136 kts 311°
2026-04-24 03:49 33.99417 -118.43431 6002 ft 135 kts 311°
2026-04-24 03:49 34.00046 -118.44269 6002 ft 134 kts 311°
2026-04-24 03:49 34.00664 -118.45091 6001 ft 134 kts 311°
2026-04-24 03:50 34.01290 -118.45923 6002 ft 134 kts 311°
2026-04-24 03:50 34.01917 -118.46754 6002 ft 134 kts 311°
2026-04-24 03:50 34.02542 -118.47589 6002 ft 134 kts 311°
2026-04-24 03:50 34.03169 -118.48425 6002 ft 134 kts 311°
2026-04-24 03:51 34.03795 -118.49258 5999 ft 134 kts 311°
2026-04-24 03:51 34.04421 -118.50088 5998 ft 133 kts 311°
2026-04-24 03:51 34.05046 -118.50916 5999 ft 133 kts 311°
2026-04-24 03:51 34.05670 -118.51746 5999 ft 134 kts 311°
2026-04-24 03:52 34.06293 -118.52576 5999 ft 133 kts 311°
2026-04-24 03:52 34.06914 -118.53406 6003 ft 134 kts 311°
2026-04-24 03:52 34.07538 -118.54237 5997 ft 133 kts 311°
2026-04-24 03:52 34.08150 -118.55051 6003 ft 133 kts 311°
2026-04-24 03:53 34.08775 -118.55878 6001 ft 134 kts 311°
2026-04-24 03:53 34.09406 -118.56711 5998 ft 135 kts 313°
2026-04-24 03:53 34.10242 -118.57183 5998 ft 135 kts 348°
2026-04-24 03:53 34.11175 -118.57350 5997 ft 136 kts 351°
2026-04-24 03:54 34.12115 -118.57496 6000 ft 136 kts 351°
2026-04-24 03:54 34.13052 -118.57638 6000 ft 136 kts 351°
2026-04-24 03:54 34.13988 -118.57782 6000 ft 136 kts 352°
2026-04-24 03:54 34.14928 -118.57928 6000 ft 136 kts 352°
2026-04-24 03:55 34.15869 -118.58070 5997 ft 136 kts 351°
2026-04-24 03:55 34.16810 -118.58211 5996 ft 136 kts 352°
2026-04-24 03:55 34.17738 -118.58353 5997 ft 136 kts 351°
2026-04-24 03:55 34.18679 -118.58495 6000 ft 136 kts 351°
2026-04-24 03:56 34.19621 -118.58633 6022 ft 137 kts 352°
2026-04-24 03:56 34.20567 -118.58773 6022 ft 137 kts 352°
2026-04-24 03:56 34.21512 -118.58913 6022 ft 137 kts 352°
2026-04-24 03:56 34.22458 -118.59052 6022 ft 137 kts 351°
2026-04-24 03:57 34.23407 -118.59192 5955 ft 141 kts 351°
2026-04-24 03:57 34.24407 -118.59341 5805 ft 148 kts 352°
2026-04-24 03:57 34.25438 -118.59494 5658 ft 151 kts 352°
2026-04-24 03:57 34.26486 -118.59649 5510 ft 152 kts 352°
2026-04-24 03:58 34.27529 -118.59802 5364 ft 153 kts 352°
2026-04-24 03:58 34.28586 -118.59956 5215 ft 153 kts 352°
2026-04-24 03:58 34.29645 -118.60084 5065 ft 153 kts 359°
2026-04-24 03:58 34.30697 -118.59995 5016 ft 148 kts
2026-04-24 03:59 34.31704 -118.59921 5009 ft 142 kts
2026-04-24 03:59 34.32676 -118.59875 5006 ft 138 kts
2026-04-24 03:59 34.33628 -118.59839 5011 ft 137 kts 360°
2026-04-24 03:59 34.34578 -118.59810 5007 ft 137 kts 360°
2026-04-24 04:00 34.35527 -118.59781 5007 ft 136 kts 359°
2026-04-24 04:00 34.36475 -118.59750 5008 ft 136 kts 359°
2026-04-24 04:00 34.37418 -118.59720 5008 ft 135 kts 359°
2026-04-24 04:00 34.38359 -118.59689 5008 ft 135 kts 359°
2026-04-24 04:01 34.39288 -118.59659 5006 ft 136 kts 359°
2026-04-24 04:01 34.40232 -118.59629 5006 ft 136 kts 359°
2026-04-24 04:01 34.41174 -118.59600 5008 ft 135 kts 358°
2026-04-24 04:01 34.42107 -118.59569 5012 ft 134 kts 357°
2026-04-24 04:02 34.43035 -118.59539 5012 ft 133 kts 358°
2026-04-24 04:02 34.43962 -118.59509 5011 ft 133 kts 358°
2026-04-24 04:02 34.44871 -118.59296 5013 ft 136 kts 20°
2026-04-24 04:02 34.45620 -118.58571 5024 ft 143 kts 50°
2026-04-24 04:03 34.46058 -118.57505 5027 ft 144 kts 64°
2026-04-24 04:03 34.46435 -118.56378 5024 ft 144 kts 65°
2026-04-24 04:03 34.46813 -118.55251 5027 ft 144 kts 65°
2026-04-24 04:03 34.47166 -118.54106 5022 ft 147 kts 78°
2026-04-24 04:04 34.46973 -118.52908 5026 ft 149 kts 123°
2026-04-24 04:04 34.46174 -118.52171 5016 ft 145 kts 166°
2026-04-24 04:04 34.45213 -118.51902 5081 ft 140 kts 172°
2026-04-24 04:04 34.44252 -118.51653 5035 ft 143 kts 172°
2026-04-24 04:05 34.43269 -118.51412 5018 ft 146 kts 172°
2026-04-24 04:05 34.42285 -118.51133 5031 ft 143 kts 171°
2026-04-24 04:05 34.41308 -118.50992 5010 ft 142 kts 178°
2026-04-24 04:05 34.40325 -118.50901 4917 ft 135 kts 178°
2026-04-24 04:06 34.39485 -118.50805 4806 ft 115 kts 178°
2026-04-24 04:06 34.38680 -118.50734 4672 ft 115 kts 179°
2026-04-24 04:06 34.37882 -118.50673 4504 ft 114 kts 178°
2026-04-24 04:06 34.37136 -118.50582 4380 ft 103 kts 177°
2026-04-24 04:07 34.36431 -118.50516 4174 ft 99 kts 178°
2026-04-24 04:07 34.35788 -118.50452 3980 ft 87 kts 178°
2026-04-24 04:07 34.35180 -118.50398 3877 ft 87 kts 178°
2026-04-24 04:07 34.34570 -118.50336 3780 ft 91 kts 175°
2026-04-24 04:08 34.33932 -118.50260 3617 ft 95 kts 176°
2026-04-24 04:08 34.33296 -118.50216 3428 ft 90 kts 176°
2026-04-24 04:08 34.32678 -118.50177 3277 ft 87 kts 178°
2026-04-24 04:08 34.32083 -118.50109 3146 ft 87 kts 175°
2026-04-24 04:09 34.31491 -118.50063 3049 ft 84 kts 173°
2026-04-24 04:09 34.30903 -118.49974 2923 ft 86 kts 174°
2026-04-24 04:09 34.30310 -118.49914 2808 ft 85 kts 176°
2026-04-24 04:09 34.29714 -118.49885 2689 ft 84 kts 178°
2026-04-24 04:10 34.29116 -118.49830 2522 ft 87 kts 174°
2026-04-24 04:10 34.28523 -118.49761 2394 ft 86 kts 174°
2026-04-24 04:10 34.27923 -118.49687 2268 ft 86 kts 178°
2026-04-24 04:11 34.26716 -118.49600 2010 ft 85 kts 176°
2026-04-24 04:11 34.26118 -118.49517 1870 ft 88 kts 178°
2026-04-24 04:11 34.25517 -118.49481 1750 ft 88 kts 174°
2026-04-24 04:11 34.24914 -118.49399 1631 ft 88 kts 178°
2026-04-24 04:12 34.24310 -118.49364 1494 ft 86 kts 176°
2026-04-24 04:12 34.23718 -118.49311 1344 ft 87 kts 175°
2026-04-24 04:12 34.23124 -118.49236 1202 ft 86 kts 176°
2026-04-24 04:12 34.22546 -118.49184 1046 ft 82 kts 176°
2026-04-24 04:13 34.22010 -118.49139 946 ft 73 kts 178°
2026-04-24 04:13 34.21500 -118.49088 834 ft 75 kts 178°
2026-04-24 04:13 34.21040 -118.49047 787 ft 54 kts 176°
2026-04-24 04:13 34.20753 -118.49019 781 ft 15 kts 177°
2026-04-24 04:14 34.20687 -118.49004 779 ft 15 kts 146°
2026-04-24 04:14 34.20676 -118.48895 778 ft 0 kts 85°
2026-04-24 04:14 34.20676 -118.48890 778 ft 1 kts 85°
2026-04-24 04:15 34.20677 -118.48872 777 ft 0 kts 84°